Simultaneous Nadir Overpasses (SNOs) Predictions

Prediction of SNOs between GOES-16 and FY3D Satellite Orbit:

Table of predicted SNOs for the next 14.0 days since TLE Epoch: 3/25/2023
Index Date Time (GOES-16) GOES-16 Lat,Lon FY3D Lat,Lon Distance(km) Time Diff (sec)
1 03/25/2023 19:14:07 0.06, -75.19 -0.51, -77.64 278.89 80
2 03/26/2023 18:53:04 0.06, -75.19 0.49, -73.18 228.69 80
3 03/28/2023 07:18:07 -0.05, -75.21 0.69, -78.58 383.68 80
4 03/29/2023 06:57:04 -0.05, -75.21 -0.31, -74.12 124.25 80
5 03/30/2023 19:22:14 0.04, -75.21 -0.95, -79.53 492.74 80
6 03/31/2023 19:01:11 0.04, -75.22 0.06, -75.08 15.70 80
7 04/03/2023 07:07:50 -0.03, -75.25 0.11, -76.02 86.17 80
8 04/04/2023 06:46:46 -0.03, -75.27 -0.85, -71.55 422.95 80
9 04/05/2023 19:11:56 0.03, -75.28 -0.38, -76.97 192.44 80
10 04/06/2023 18:50:53 0.03, -75.30 0.65, -72.52 317.00 80
